Location: Oulou
(10.7667°N, 12.5167°W)
Time: 20:25:40
(UTC+00:00)

CZ-3 Stage 3 - Pass Details

Date: 20 September 2019
Orbit: 237 x 16061 km, 30.8° (Epoch: 12 October)

Event Time Altitude Azimuth Distance (km) Brightness Sun altitude
Rises 19:00:07 0° 242° (WSW) 8,866 8.6 -3.9°
Reaches altitude 10° 19:09:12 10° 245° (WSW) 5,442 7.5 -6.1°
Maximum altitude 19:20:17 61° 324° (NW) 888 2.6 -8.8°
Drops below altitude 10° 19:23:23 10° 46° (NE) 1,585 3.3 -9.6°
Enters shadow 19:23:48 - 48° (NE) 1,777 3.5 -9.7°
